SDG090 EGHQ-GCLA

Flight info

Callsign SDG090
Flight time N/A
Altitude 35000
Route LND DCT STO
Aircraft A321/M-L/C

Departure

Time 2026-04-30 13:12
Airport Cornwall Airport Newquay (EGHQ)

Arrival

Time N/A
Airport La Palma Airport (GCLA)
Time Latitude Longitude Altitude Speed Heading
2026-04-30 12:58 50.44690 -5.00633 315 ft 0 kts 38°
2026-04-30 13:01 50.44693 -5.00627 315 ft 1 kts 50°
2026-04-30 13:01 50.44704 -5.00593 315 ft 3 kts 87°
2026-04-30 13:02 50.44693 -5.00576 316 ft 1 kts 204°
2026-04-30 13:02 50.44691 -5.00591 315 ft 0 kts 293°
2026-04-30 13:02 50.44702 -5.00641 314 ft 7 kts 288°
2026-04-30 13:02 50.44738 -5.00762 312 ft 10 kts 300°
2026-04-30 13:03 50.44767 -5.00833 311 ft 12 kts 301°
2026-04-30 13:03 50.44803 -5.00967 308 ft 14 kts 279°
2026-04-30 13:03 50.44776 -5.01090 306 ft 13 kts 229°
2026-04-30 13:03 50.44714 -5.01169 304 ft 8 kts 188°
2026-04-30 13:04 50.44686 -5.01128 305 ft 4 kts 132°
2026-04-30 13:04 50.44675 -5.01110 305 ft 0 kts 129°
2026-04-30 13:05 50.44680 -5.01100 305 ft 1 kts
2026-04-30 13:05 50.44723 -5.01134 305 ft 10 kts 352°
2026-04-30 13:06 50.44805 -5.01012 307 ft 6 kts 83°
2026-04-30 13:06 50.44804 -5.00960 308 ft 0 kts 99°
2026-04-30 13:06 50.44780 -5.00859 310 ft 12 kts 119°
2026-04-30 13:07 50.44743 -5.00746 312 ft 10 kts 99°
2026-04-30 13:07 50.44749 -5.00654 314 ft 7 kts 98°
2026-04-30 13:07 50.44726 -5.00580 315 ft 6 kts 106°
2026-04-30 13:07 50.44707 -5.00521 317 ft 4 kts 166°
2026-04-30 13:08 50.44704 -5.00522 317 ft 0 kts 191°
2026-04-30 13:09 50.44689 -5.00534 316 ft 9 kts 220°
2026-04-30 13:10 50.44701 -5.00658 314 ft 15 kts 301°
2026-04-30 13:10 50.44762 -5.00815 311 ft 18 kts 301°
2026-04-30 13:10 50.44805 -5.00977 307 ft 16 kts 272°
2026-04-30 13:10 50.44755 -5.01132 304 ft 15 kts 219°
2026-04-30 13:11 50.44690 -5.01150 304 ft 0 kts 121°
2026-04-30 13:11 50.44687 -5.01142 304 ft 12 kts 122°
2026-04-30 13:11 50.44490 -5.00619 316 ft 96 kts 121°
2026-04-30 13:11 50.44019 -4.99405 383 ft 158 kts 122°
2026-04-30 13:12 50.43438 -4.97914 1131 ft 164 kts 120°
2026-04-30 13:12 50.42888 -4.96436 2163 ft 161 kts 122°
2026-04-30 13:12 50.42070 -4.95230 2790 ft 170 kts 150°
2026-04-30 13:13 50.39524 -4.95780 3409 ft 224 kts 213°
2026-04-30 13:13 50.38651 -4.97954 3627 ft 259 kts 255°
2026-04-30 13:13 50.39604 -5.03751 3878 ft 291 kts 294°
2026-04-30 13:14 50.40079 -5.06801 3829 ft 291 kts 262°
2026-04-30 13:14 50.39420 -5.09695 4246 ft 283 kts 225°
2026-04-30 13:14 50.36606 -5.13567 5846 ft 273 kts 218°
2026-04-30 13:15 50.35272 -5.15709 6538 ft 276 kts 223°
2026-04-30 13:15 50.32946 -5.20237 8226 ft 265 kts 227°
2026-04-30 13:15 50.31847 -5.22577 8608 ft 278 kts 229°
2026-04-30 13:16 50.30716 -5.25058 9142 ft 282 kts 230°
2026-04-30 13:16 50.29749 -5.27677 9935 ft 282 kts 252°
2026-04-30 13:16 50.29592 -5.30720 10599 ft 286 kts 264°
2026-04-30 13:17 50.28196 -5.36127 11540 ft 273 kts 215°
2026-04-30 13:17 50.26624 -5.37836 11827 ft 282 kts 210°
2026-04-30 13:17 50.23536 -5.42171 12394 ft 317 kts 223°
2026-04-30 13:18 50.22093 -5.44891 12673 ft 333 kts 227°
2026-04-30 13:18 50.19266 -5.50938 13216 ft 358 kts 230°
2026-04-30 13:18 50.17820 -5.54187 13450 ft 369 kts 231°
2026-04-30 13:19 50.16348 -5.57515 13670 ft 381 kts 231°
2026-04-30 13:19 50.14779 -5.60865 13877 ft 388 kts 225°
2026-04-30 13:19 50.12851 -5.63853 14099 ft 391 kts 216°
2026-04-30 13:19 50.10657 -5.66245 14437 ft 390 kts 206°
2026-04-30 13:20 50.08286 -5.68328 14872 ft 392 kts 204°
2026-04-30 13:20 50.05895 -5.70371 15282 ft 395 kts 204°
2026-04-30 13:20 50.03489 -5.72417 15690 ft 397 kts 204°
2026-04-30 13:20 50.01047 -5.74496 16102 ft 400 kts 204°
2026-04-30 13:21 49.98622 -5.76563 16498 ft 402 kts 204°
2026-04-30 13:21 49.96159 -5.78662 16891 ft 404 kts 204°
2026-04-30 13:21 49.93685 -5.80772 17281 ft 407 kts 204°
2026-04-30 13:22 49.88696 -5.85022 18044 ft 411 kts 204°
2026-04-30 13:22 49.86195 -5.87149 18416 ft 413 kts 204°
2026-04-30 13:22 49.81144 -5.91440 19124 ft 417 kts 204°
2026-04-30 13:23 49.78622 -5.93579 19464 ft 419 kts 204°
2026-04-30 13:23 49.73459 -5.97949 20131 ft 423 kts 204°
2026-04-30 13:24 49.68292 -6.02313 20760 ft 427 kts 204°
2026-04-30 13:24 49.63096 -6.06690 21358 ft 431 kts 205°
2026-04-30 13:25 49.57814 -6.11128 21936 ft 435 kts 205°
2026-04-30 13:25 49.52512 -6.15572 22483 ft 438 kts 205°
2026-04-30 13:26 49.44429 -6.22327 23277 ft 443 kts 205°
2026-04-30 13:26 49.39026 -6.26828 23767 ft 446 kts 205°
2026-04-30 13:27 49.33550 -6.31379 24248 ft 449 kts 205°
2026-04-30 13:28 49.25297 -6.38216 25176 ft 448 kts 205°
2026-04-30 13:28 49.19842 -6.42722 25863 ft 446 kts 205°
2026-04-30 13:28 49.17131 -6.44956 26214 ft 445 kts 205°
2026-04-30 13:29 49.11692 -6.49431 26941 ft 442 kts 205°
2026-04-30 13:29 49.06270 -6.53877 27387 ft 448 kts 205°
2026-04-30 13:30 48.97965 -6.60666 27896 ft 455 kts 205°
2026-04-30 13:31 48.92408 -6.65199 28381 ft 453 kts 204°
2026-04-30 13:31 48.84100 -6.71952 29134 ft 451 kts 204°
2026-04-30 13:32 48.78576 -6.76427 29646 ft 449 kts 204°
2026-04-30 13:32 48.73104 -6.80850 30226 ft 447 kts 204°
2026-04-30 13:33 48.67650 -6.85247 30811 ft 444 kts 204°
2026-04-30 13:33 48.62225 -6.89607 31344 ft 442 kts 204°
2026-04-30 13:34 48.59513 -6.91782 31597 ft 442 kts 205°
2026-04-30 13:34 48.51384 -6.98288 32305 ft 440 kts 205°
2026-04-30 13:35 48.48703 -7.00429 32535 ft 439 kts 205°
2026-04-30 13:35 48.43330 -7.04713 32968 ft 437 kts 205°
2026-04-30 13:36 48.37989 -7.08961 33370 ft 436 kts 206°
2026-04-30 13:36 48.35286 -7.11107 33560 ft 435 kts 206°
2026-04-30 13:36 48.29974 -7.15317 33925 ft 434 kts 206°
2026-04-30 13:37 48.27309 -7.17426 34109 ft 433 kts 206°
2026-04-30 13:37 48.21980 -7.21634 34453 ft 432 kts 206°
2026-04-30 13:38 48.16697 -7.25797 34782 ft 430 kts 206°
2026-04-30 13:38 48.14059 -7.27872 34935 ft 430 kts 206°
2026-04-30 13:38 48.08774 -7.32022 35061 ft 429 kts 207°
2026-04-30 13:39 48.03502 -7.36153 35063 ft 427 kts 207°
2026-04-30 13:40 47.95629 -7.42301 35032 ft 426 kts 207°
2026-04-30 13:40 47.90384 -7.46392 35020 ft 426 kts 207°
2026-04-30 13:41 47.85146 -7.50463 35019 ft 426 kts 207°
2026-04-30 13:41 47.79892 -7.54537 35031 ft 426 kts 207°
2026-04-30 13:42 47.74665 -7.58582 35037 ft 425 kts 207°
2026-04-30 13:42 47.66824 -7.64629 35039 ft 425 kts 207°
2026-04-30 13:43 47.61560 -7.68676 35040 ft 425 kts 207°
2026-04-30 13:43 47.56345 -7.72677 35041 ft 425 kts 207°
2026-04-30 13:44 47.51087 -7.76702 35042 ft 425 kts 207°
2026-04-30 13:44 47.45847 -7.80701 35043 ft 425 kts 207°
2026-04-30 13:45 47.38011 -7.86665 35045 ft 425 kts 207°
2026-04-30 13:46 47.32767 -7.90648 35046 ft 425 kts 207°
2026-04-30 13:46 47.27517 -7.94626 35047 ft 426 kts 207°
2026-04-30 13:47 47.22255 -7.98604 35048 ft 426 kts 207°
2026-04-30 13:47 47.16989 -8.02573 35049 ft 426 kts 207°
2026-04-30 13:48 47.11706 -8.06549 35050 ft 426 kts 207°
2026-04-30 13:48 47.06429 -8.10512 35030 ft 426 kts 207°
2026-04-30 13:49 47.01202 -8.14430 35023 ft 424 kts 207°
2026-04-30 13:49 46.95972 -8.18339 35043 ft 422 kts 207°
2026-04-30 13:50 46.90744 -8.22239 35052 ft 422 kts 207°
2026-04-30 13:50 46.82893 -8.28080 35056 ft 422 kts 207°
2026-04-30 13:51 46.77684 -8.31945 35057 ft 423 kts 207°
2026-04-30 13:51 46.72440 -8.35827 35058 ft 423 kts 207°
2026-04-30 13:52 46.67206 -8.39691 35059 ft 423 kts 207°
2026-04-30 13:52 46.61927 -8.43580 35060 ft 424 kts 207°
2026-04-30 13:53 46.56706 -8.47419 35061 ft 424 kts 207°
2026-04-30 13:53 46.51438 -8.51285 35061 ft 424 kts 207°
2026-04-30 13:54 46.46186 -8.55130 35060 ft 424 kts 207°
2026-04-30 13:54 46.40929 -8.58972 35060 ft 424 kts 207°
2026-04-30 13:55 46.35650 -8.62820 35059 ft 424 kts 207°
2026-04-30 13:55 46.30396 -8.66642 35059 ft 424 kts 207°
2026-04-30 13:56 46.25116 -8.70475 35059 ft 424 kts 207°
2026-04-30 13:56 46.19824 -8.74309 35058 ft 424 kts 207°
2026-04-30 13:57 46.14572 -8.78105 35057 ft 424 kts 207°
2026-04-30 13:57 46.09303 -8.81904 35056 ft 423 kts 207°
2026-04-30 13:58 46.01416 -8.87584 35057 ft 423 kts 207°
2026-04-30 13:59 45.96137 -8.91375 35058 ft 423 kts 207°
2026-04-30 13:59 45.90889 -8.95131 35065 ft 423 kts 207°
2026-04-30 14:00 45.85607 -8.98902 35069 ft 424 kts 208°
2026-04-30 14:00 45.77689 -9.04546 35061 ft 425 kts 208°
2026-04-30 14:01 45.72407 -9.08300 35061 ft 424 kts 208°
2026-04-30 14:01 45.67142 -9.12033 35062 ft 424 kts 208°
2026-04-30 14:02 45.61855 -9.15775 35063 ft 424 kts 208°
2026-04-30 14:02 45.56602 -9.19484 35064 ft 424 kts 208°
2026-04-30 14:03 45.51313 -9.23211 35066 ft 424 kts 208°
2026-04-30 14:03 45.46043 -9.26913 35067 ft 423 kts 208°
2026-04-30 14:04 45.40778 -9.30607 35068 ft 423 kts 208°
2026-04-30 14:04 45.35498 -9.34304 35069 ft 423 kts 208°
2026-04-30 14:05 45.30214 -9.37996 35070 ft 423 kts 208°
2026-04-30 14:05 45.24958 -9.41660 35071 ft 423 kts 208°
2026-04-30 14:06 45.17027 -9.47175 35070 ft 423 kts 208°
2026-04-30 14:07 45.09089 -9.52680 35072 ft 424 kts 208°
2026-04-30 14:08 45.01174 -9.58151 35074 ft 424 kts 208°
2026-04-30 14:08 44.93211 -9.63637 35075 ft 424 kts 208°
2026-04-30 14:09 44.87903 -9.67284 35078 ft 424 kts 207°
2026-04-30 14:10 44.79966 -9.72725 35078 ft 424 kts 207°
2026-04-30 14:10 44.74681 -9.76338 35078 ft 424 kts 208°
2026-04-30 14:11 44.69374 -9.79959 35079 ft 423 kts 208°
2026-04-30 14:11 44.64077 -9.83564 35079 ft 423 kts 208°
2026-04-30 14:12 44.58782 -9.87162 35080 ft 423 kts 208°
2026-04-30 14:12 44.53481 -9.90756 35080 ft 423 kts 208°
2026-04-30 14:13 44.48193 -9.94336 35081 ft 423 kts 208°
2026-04-30 14:13 44.42904 -9.97907 35081 ft 423 kts 208°
2026-04-30 14:14 44.37604 -10.01479 35081 ft 423 kts 208°
2026-04-30 14:14 44.32293 -10.05052 35078 ft 423 kts 208°
2026-04-30 14:15 44.27025 -10.08590 35077 ft 423 kts 208°
2026-04-30 14:15 44.21715 -10.12148 35081 ft 423 kts 208°
2026-04-30 14:16 44.16441 -10.15676 35082 ft 423 kts 208°
2026-04-30 14:16 44.11114 -10.19232 35082 ft 423 kts 208°
2026-04-30 14:17 44.05823 -10.22756 35082 ft 423 kts 208°
2026-04-30 14:17 44.00523 -10.26278 35081 ft 423 kts 208°
2026-04-30 14:18 43.95202 -10.29808 35081 ft 423 kts 208°
2026-04-30 14:18 43.87259 -10.35064 35082 ft 423 kts 208°
2026-04-30 14:19 43.79309 -10.40308 35081 ft 423 kts 208°
2026-04-30 14:20 43.74003 -10.43799 35080 ft 423 kts 208°
2026-04-30 14:20 43.66027 -10.49037 35080 ft 423 kts 208°
2026-04-30 14:21 43.60706 -10.52522 35080 ft 423 kts 208°
2026-04-30 14:22 43.52749 -10.57719 35080 ft 423 kts 208°
2026-04-30 14:22 43.44758 -10.62924 35081 ft 423 kts 208°
2026-04-30 14:23 43.34126 -10.69820 35084 ft 423 kts 207°
2026-04-30 14:24 43.26132 -10.74990 35083 ft 423 kts 207°
2026-04-30 14:25 43.15481 -10.81856 35080 ft 424 kts 207°
2026-04-30 14:26 43.07501 -10.86983 35082 ft 424 kts 207°
2026-04-30 14:27 42.99487 -10.92117 35083 ft 424 kts 207°
2026-04-30 14:27 42.94148 -10.95529 35083 ft 424 kts 207°
2026-04-30 14:28 42.86105 -11.00654 35084 ft 425 kts 207°
2026-04-30 14:28 42.80778 -11.04041 35084 ft 425 kts 206°
2026-04-30 14:29 42.70059 -11.10838 35084 ft 425 kts 206°
2026-04-30 14:31 42.56670 -11.19286 35085 ft 426 kts 206°
2026-04-30 14:31 42.48601 -11.24360 35086 ft 426 kts 206°
2026-04-30 14:32 42.40539 -11.29416 35086 ft 426 kts 206°
2026-04-30 14:33 42.35175 -11.32770 35086 ft 426 kts 206°
2026-04-30 14:33 42.27098 -11.37812 35087 ft 427 kts 206°
2026-04-30 14:34 42.21697 -11.41175 35087 ft 427 kts 206°
2026-04-30 14:34 42.16312 -11.44522 35087 ft 427 kts 206°
2026-04-30 14:35 42.08247 -11.49523 35086 ft 426 kts 206°
2026-04-30 14:36 42.02871 -11.52851 35086 ft 427 kts 206°
2026-04-30 14:36 41.97448 -11.56202 35086 ft 427 kts 206°
2026-04-30 14:37 41.92059 -11.59527 35086 ft 427 kts 206°
2026-04-30 14:37 41.86676 -11.62840 35085 ft 427 kts 206°
2026-04-30 14:38 41.81260 -11.66167 35085 ft 427 kts 205°
2026-04-30 14:38 41.75853 -11.69481 35086 ft 428 kts 205°
2026-04-30 14:39 41.70423 -11.72803 35086 ft 433 kts 205°
2026-04-30 14:39 41.64941 -11.76151 35086 ft 433 kts 205°
2026-04-30 14:40 41.56702 -11.81170 35086 ft 433 kts 205°
2026-04-30 14:40 41.51224 -11.84499 35085 ft 433 kts 205°
2026-04-30 14:41 41.45736 -11.87828 35085 ft 433 kts 205°
2026-04-30 14:41 41.40268 -11.91140 35085 ft 433 kts 205°
2026-04-30 14:42 41.34775 -11.94460 35085 ft 433 kts 205°
2026-04-30 14:42 41.29280 -11.97775 35085 ft 434 kts 205°
2026-04-30 14:43 41.23780 -12.01087 35085 ft 434 kts 205°
2026-04-30 14:43 41.18290 -12.04388 35085 ft 434 kts 205°
2026-04-30 14:44 41.12781 -12.07693 35092 ft 434 kts 205°
2026-04-30 14:44 41.07291 -12.10983 35098 ft 433 kts 205°
2026-04-30 14:45 41.01791 -12.14268 35092 ft 433 kts 204°
2026-04-30 14:45 40.96294 -12.17544 35086 ft 433 kts 204°
2026-04-30 14:46 40.90787 -12.20821 35085 ft 433 kts 204°
2026-04-30 14:46 40.85313 -12.24074 35088 ft 434 kts 204°
2026-04-30 14:47 40.79829 -12.27328 35093 ft 434 kts 204°
2026-04-30 14:47 40.74295 -12.30605 35095 ft 434 kts 204°
2026-04-30 14:48 40.68824 -12.33839 35095 ft 434 kts 204°
2026-04-30 14:48 40.63290 -12.37107 35090 ft 434 kts 204°
2026-04-30 14:49 40.57800 -12.40342 35083 ft 435 kts 204°
2026-04-30 14:49 40.52256 -12.43602 35081 ft 435 kts 204°
2026-04-30 14:50 40.43994 -12.48449 35080 ft 435 kts 204°
2026-04-30 14:51 40.35694 -12.53305 35081 ft 435 kts 204°
2026-04-30 14:52 40.27419 -12.58134 35081 ft 434 kts 204°
2026-04-30 14:52 40.19144 -12.62949 35081 ft 434 kts 204°
2026-04-30 14:53 40.10887 -12.67740 35081 ft 434 kts 203°
2026-04-30 14:54 39.99871 -12.74114 35081 ft 434 kts 203°
2026-04-30 14:55 39.91609 -12.78880 35081 ft 434 kts 203°
2026-04-30 14:56 39.80595 -12.85214 35082 ft 433 kts 203°
2026-04-30 14:57 39.72313 -12.89961 35090 ft 432 kts 203°
2026-04-30 14:58 39.61363 -12.96219 35094 ft 431 kts 203°
2026-04-30 14:58 39.53122 -13.00914 35092 ft 431 kts 203°
2026-04-30 15:00 39.39421 -13.08693 35089 ft 430 kts 203°
2026-04-30 15:01 39.28487 -13.14877 35088 ft 430 kts 203°
2026-04-30 15:01 39.20292 -13.19498 35087 ft 430 kts 203°
2026-04-30 15:02 39.14805 -13.22585 35087 ft 429 kts 203°
2026-04-30 15:03 39.01117 -13.30265 35087 ft 429 kts 203°
2026-04-30 15:04 38.87474 -13.37886 35085 ft 429 kts 203°
2026-04-30 15:06 38.73808 -13.45489 35079 ft 428 kts 203°
2026-04-30 15:07 38.62877 -13.51548 35073 ft 427 kts 203°
2026-04-30 15:08 38.51875 -13.57577 34961 ft 434 kts 209°
2026-04-30 15:08 38.42579 -13.62720 35068 ft 440 kts 210°
2026-04-30 15:09 38.37877 -13.65308 35073 ft 441 kts 209°
2026-04-30 15:10 38.26615 -13.71484 35067 ft 442 kts 210°
2026-04-30 15:11 38.09642 -13.80749 35060 ft 442 kts 210°
2026-04-30 15:13 37.95689 -13.88331 35062 ft 443 kts 211°
2026-04-30 15:14 37.75833 -13.99069 35062 ft 443 kts 211°
2026-04-30 15:17 37.50329 -14.12770 35060 ft 442 kts 211°
2026-04-30 15:19 37.27708 -14.24843 35059 ft 442 kts 211°